Hourly Data Report for July 20, 2021

CLYDE RIVER A
NUNAVUT
Current Station Operator: NAVCAN

70°29'09.000" N
68°31'01.000" W
26.50 m
2400804
71090
YCY

Download Data

Hourly Data (July 2021)
Hourly Data Report for July 20, 2021
TIME
LST
Temp Definition
°C
Dew Point Definition
°C
Rel Hum Definition
%
Precip. Amount Definition
mm

Wind Dir Definition
10's deg

Wind Spd Definition
km/h
Visibility Definition
km
Stn Press Definition
kPa
Hmdx Definition


Wind Chill Definition


Weather Definition


00:00 2.2 0.9 91 0.0 13 21 16.1 99.90     LegendNANA
01:00 2.5 0.3 86 0.0 13 15 16.1 99.84     LegendNANA
02:00 2.8 0.3 83 0.0 12 17 16.1 99.76     Rain
03:00 2.4 1.2 92 0.0 13 21 16.1 99.71     LegendNANA
04:00 2.2 1.5 95 0.0 13 17 16.1 99.66     Rain
05:00 2.4 1.8 96 0.0 13 21 16.1 99.61     Rain
06:00 3.0 2.2 94 0.0 13 24 16.1 99.59     LegendNANA
07:00 2.7 2.3 97 0.0 12 22 16.1 99.57     Rain
08:00 3.1 2.7 97 0.0 13 21 16.1 99.56     Rain
09:00 3.5 2.9 96 0.0 12 11 16.1 99.55     Rain
10:00 3.4 3.1 98 0.0 13 17 16.1 99.53     Rain
11:00 4.4 4.0 97 0.0 13 13 11.3 99.52     Rain
12:00 5.0 4.3 95 0.0 11 15 16.1 99.52     LegendNANA
13:00 4.6 3.8 94 0.0 11 18 16.1 99.53     LegendNANA
14:00 5.1 3.7 91 0.0 9 17 16.1 99.55     LegendNANA
15:00 4.4 3.4 93 0.0 11 15 16.1 99.56     LegendNANA
16:00 5.2 3.8 91 0.0 5 5 16.1 99.58     Rain
17:00 4.8 3.5 91 0.0 3 8 16.1 99.61     LegendNANA
18:00 4.4 3.3 92 0.0 3 9 16.1 99.64     Rain
19:00 3.1 2.5 96 0.0 1 9 16.1 99.71     Rain
20:00 2.4 2.0 97 0.0 34 30 16.1 99.77     Rain
21:00 2.3 1.9 97 0.0 33 28 16.1 99.83     Rain
22:00 2.0 1.0 93 0.0 32 30 16.1 99.84     Rain
23:00 2.0 1.0 93 0.0 33 34 16.1 99.86     Rain

Notes on Data Quality.

Legend

  • E = Estimated
  • M = Missing
  • NA = Not Available*
  • [empty] = Indicates an unobserved value
Date modified: